Time,TemperatureF,DewpointF,PressureIn,WindDirection,WindDirectionDegrees,WindSpeedMPH,WindSpeedGustMPH,Humidity,HourlyPrecipIn,Conditions,Clouds,dailyrainin,SolarRadiationWatts/m^2,SoftwareType,DateUTC
2013-05-23 00:02:00,50.0,38.0,-100.00,WNW,303,9.0,16.0,64,0.00,,,0.00,0.000000,,2013-05-23 07:02:00,
2013-05-23 00:11:00,50.0,38.0,-100.00,WNW,303,9.0,16.0,64,0.00,,,0.00,0.000000,,2013-05-23 07:11:00,
2013-05-23 00:21:00,50.0,38.0,-100.00,WNW,303,9.0,16.0,64,0.00,,,0.00,0.000000,,2013-05-23 07:21:00,
2013-05-23 00:59:00,49.0,39.0,-100.00,NW,308,7.0,15.0,68,0.00,,,0.00,0.000000,,2013-05-23 07:59:00,
2013-05-23 01:11:00,49.0,39.0,-100.00,NW,308,7.0,15.0,68,0.00,,,0.00,0.000000,,2013-05-23 08:11:00,
2013-05-23 01:21:00,49.0,39.0,-100.00,NW,308,7.0,15.0,68,0.00,,,0.00,0.000000,,2013-05-23 08:21:00,
2013-05-23 01:52:00,48.0,39.0,-100.00,NW,307,8.0,13.0,70,0.00,,,0.00,0.000000,,2013-05-23 08:52:00,
2013-05-23 02:01:00,48.0,39.0,-100.00,NW,307,8.0,13.0,70,0.00,,,0.00,0.000000,,2013-05-23 09:01:00,
2013-05-23 02:11:00,48.0,39.0,-100.00,NW,307,8.0,13.0,70,0.00,,,0.00,0.000000,,2013-05-23 09:11:00,
2013-05-23 02:21:00,48.0,39.0,-100.00,NW,307,8.0,13.0,70,0.00,,,0.00,0.000000,,2013-05-23 09:21:00,
2013-05-23 02:53:00,47.0,38.0,-100.00,NW,305,8.0,12.0,71,0.00,,,0.00,0.000000,,2013-05-23 09:53:00,
2013-05-23 03:02:00,47.0,38.0,-100.00,NW,305,8.0,12.0,71,0.00,,,0.00,0.000000,,2013-05-23 10:02:00,
2013-05-23 03:12:00,47.0,38.0,-100.00,NW,305,8.0,12.0,71,0.00,,,0.00,0.000000,,2013-05-23 10:12:00,
2013-05-23 03:22:00,47.0,38.0,-100.00,NW,305,8.0,12.0,71,0.00,,,0.00,0.000000,,2013-05-23 10:22:00,
2013-05-23 03:52:00,47.0,39.0,-100.00,WNW,300,10.0,16.0,73,0.00,,,0.00,0.000000,,2013-05-23 10:52:00,
2013-05-23 04:02:00,47.0,39.0,-100.00,WNW,300,10.0,16.0,73,0.00,,,0.00,0.000000,,2013-05-23 11:02:00,
2013-05-23 04:11:00,47.0,39.0,-100.00,WNW,300,10.0,16.0,73,0.00,,,0.00,0.000000,,2013-05-23 11:11:00,
2013-05-23 04:21:00,47.0,39.0,-100.00,WNW,300,10.0,16.0,73,0.00,,,0.00,0.000000,,2013-05-23 11:21:00,
2013-05-23 04:52:00,46.0,38.0,-100.00,WNW,297,8.0,15.0,73,0.00,,,0.00,0.000000,,2013-05-23 11:52:00,
2013-05-23 05:01:00,46.0,38.0,-100.00,WNW,297,8.0,15.0,73,0.00,,,0.00,0.000000,,2013-05-23 12:01:00,
2013-05-23 05:11:00,46.0,38.0,-100.00,WNW,297,8.0,15.0,73,0.00,,,0.00,0.000000,,2013-05-23 12:11:00,
2013-05-23 05:21:00,46.0,38.0,-100.00,WNW,297,8.0,15.0,73,0.00,,,0.00,0.000000,,2013-05-23 12:21:00,
2013-05-23 05:52:00,45.0,37.0,-100.00,NW,304,7.0,13.0,74,0.00,,,0.00,0.000000,,2013-05-23 12:52:00,
2013-05-23 06:01:00,45.0,37.0,-100.00,NW,304,7.0,13.0,74,0.00,,,0.00,0.000000,,2013-05-23 13:01:00,
2013-05-23 06:11:00,45.0,37.0,-100.00,NW,304,7.0,13.0,74,0.00,,,0.00,0.000000,,2013-05-23 13:11:00,
2013-05-23 06:21:00,45.0,37.0,-100.00,NW,304,7.0,13.0,74,0.00,,,0.00,0.000000,,2013-05-23 13:21:00,
2013-05-23 06:52:00,46.0,38.0,-100.00,NW,321,7.0,11.0,74,0.00,,,0.00,12.000000,,2013-05-23 13:52:00,
2013-05-23 07:01:00,46.0,38.0,-100.00,NW,321,7.0,11.0,74,0.00,,,0.00,12.000000,,2013-05-23 14:01:00,
2013-05-23 07:11:00,46.0,38.0,-100.00,NW,321,7.0,11.0,74,0.00,,,0.00,12.000000,,2013-05-23 14:11:00,
2013-05-23 07:21:00,46.0,38.0,-100.00,NW,321,7.0,11.0,74,0.00,,,0.00,12.000000,,2013-05-23 14:21:00,
2013-05-23 07:52:00,47.0,37.0,-100.00,NW,306,8.0,14.0,68,0.00,,,0.00,63.000000,,2013-05-23 14:52:00,
2013-05-23 08:01:00,47.0,37.0,-100.00,NW,306,8.0,14.0,68,0.00,,,0.00,63.000000,,2013-05-23 15:01:00,
2013-05-23 08:11:00,47.0,37.0,-100.00,NW,306,8.0,14.0,68,0.00,,,0.00,63.000000,,2013-05-23 15:11:00,
2013-05-23 08:21:00,47.0,37.0,-100.00,NW,306,8.0,14.0,68,0.00,,,0.00,63.000000,,2013-05-23 15:21:00,
2013-05-23 08:53:00,51.0,38.0,-100.00,WNW,294,8.0,14.0,60,0.00,,,0.00,271.000000,,2013-05-23 15:53:00,
2013-05-23 09:03:00,51.0,38.0,-100.00,WNW,294,8.0,14.0,60,0.00,,,0.00,271.000000,,2013-05-23 16:03:00,
2013-05-23 09:12:00,51.0,38.0,-100.00,WNW,294,8.0,14.0,60,0.00,,,0.00,271.000000,,2013-05-23 16:12:00,
2013-05-23 09:22:00,51.0,38.0,-100.00,WNW,294,8.0,14.0,60,0.00,,,0.00,271.000000,,2013-05-23 16:22:00,
2013-05-23 09:52:00,55.0,37.0,-100.00,NNW,327,7.0,14.0,51,0.00,,,0.00,511.000000,,2013-05-23 16:52:00,
2013-05-23 10:03:00,55.0,37.0,-100.00,NNW,327,7.0,14.0,51,0.00,,,0.00,511.000000,,2013-05-23 17:03:00,
2013-05-23 10:11:00,55.0,37.0,-100.00,NNW,327,7.0,14.0,51,0.00,,,0.00,511.000000,,2013-05-23 17:11:00,
2013-05-23 10:22:00,55.0,37.0,-100.00,NNW,327,7.0,14.0,51,0.00,,,0.00,511.000000,,2013-05-23 17:22:00,
2013-05-23 10:52:00,58.0,37.0,-100.00,WNW,284,6.0,14.0,45,0.00,,,0.00,684.000000,,2013-05-23 17:52:00,
2013-05-23 11:01:00,58.0,37.0,-100.00,WNW,284,6.0,14.0,45,0.00,,,0.00,684.000000,,2013-05-23 18:01:00,
2013-05-23 11:11:00,58.0,37.0,-100.00,WNW,284,6.0,14.0,45,0.00,,,0.00,684.000000,,2013-05-23 18:11:00,
2013-05-23 11:21:00,58.0,37.0,-100.00,WNW,284,6.0,14.0,45,0.00,,,0.00,684.000000,,2013-05-23 18:21:00,
2013-05-23 11:52:00,62.0,37.0,-100.00,West,271,6.0,17.0,40,0.00,,,0.00,824.000000,,2013-05-23 18:52:00,
2013-05-23 12:01:00,62.0,37.0,-100.00,West,271,6.0,17.0,40,0.00,,,0.00,824.000000,,2013-05-23 19:01:00,
2013-05-23 12:11:00,62.0,37.0,-100.00,West,271,6.0,17.0,40,0.00,,,0.00,824.000000,,2013-05-23 19:11:00,
2013-05-23 12:21:00,62.0,37.0,-100.00,West,271,6.0,17.0,40,0.00,,,0.00,824.000000,,2013-05-23 19:21:00,
2013-05-23 12:52:00,65.0,37.0,-100.00,SW,222,10.0,16.0,36,0.00,,,0.00,915.000000,,2013-05-23 19:52:00,
2013-05-23 13:02:00,65.0,37.0,-100.00,SW,222,10.0,16.0,36,0.00,,,0.00,915.000000,,2013-05-23 20:02:00,
2013-05-23 13:11:00,65.0,37.0,-100.00,SW,222,10.0,16.0,36,0.00,,,0.00,915.000000,,2013-05-23 20:11:00,
2013-05-23 13:21:00,65.0,37.0,-100.00,SW,222,10.0,16.0,36,0.00,,,0.00,915.000000,,2013-05-23 20:21:00,
2013-05-23 13:52:00,69.0,39.0,-100.00,SW,218,11.0,19.0,33,0.00,,,0.00,953.000000,,2013-05-23 20:52:00,
2013-05-23 14:01:00,69.0,39.0,-100.00,SW,218,11.0,19.0,33,0.00,,,0.00,953.000000,,2013-05-23 21:01:00,
2013-05-23 14:11:00,69.0,39.0,-100.00,SW,218,11.0,19.0,33,0.00,,,0.00,953.000000,,2013-05-23 21:11:00,
2013-05-23 14:21:00,69.0,39.0,-100.00,SW,218,11.0,19.0,33,0.00,,,0.00,953.000000,,2013-05-23 21:21:00,
2013-05-23 14:53:00,67.0,39.0,-100.00,SSW,200,13.0,21.0,36,0.00,,,0.00,932.000000,,2013-05-23 21:53:00,
2013-05-23 15:02:00,67.0,39.0,-100.00,SSW,200,13.0,21.0,36,0.00,,,0.00,932.000000,,2013-05-23 22:02:00,
2013-05-23 15:12:00,67.0,39.0,-100.00,SSW,200,13.0,21.0,36,0.00,,,0.00,932.000000,,2013-05-23 22:12:00,
2013-05-23 15:22:00,67.0,39.0,-100.00,SSW,200,13.0,21.0,36,0.00,,,0.00,932.000000,,2013-05-23 22:22:00,
2013-05-23 15:52:00,67.0,37.0,-100.00,SW,222,16.0,23.0,33,0.00,,,0.00,773.000000,,2013-05-23 22:52:00,
2013-05-23 16:01:00,67.0,37.0,-100.00,SW,222,16.0,23.0,33,0.00,,,0.00,773.000000,,2013-05-23 23:01:00,
2013-05-23 16:11:00,67.0,37.0,-100.00,SW,222,16.0,23.0,33,0.00,,,0.00,773.000000,,2013-05-23 23:11:00,
2013-05-23 16:21:00,67.0,37.0,-100.00,SW,222,16.0,23.0,33,0.00,,,0.00,773.000000,,2013-05-23 23:21:00,
2013-05-23 16:52:00,69.0,36.0,-100.00,SW,217,11.0,21.0,30,0.00,,,0.00,737.000000,,2013-05-23 23:52:00,
2013-05-23 17:01:00,69.0,36.0,-100.00,SW,217,11.0,21.0,30,0.00,,,0.00,737.000000,,2013-05-24 00:01:00,
2013-05-23 17:11:00,69.0,36.0,-100.00,SW,217,11.0,21.0,30,0.00,,,0.00,737.000000,,2013-05-24 00:11:00,
2013-05-23 17:21:00,69.0,36.0,-100.00,SW,217,11.0,21.0,30,0.00,,,0.00,737.000000,,2013-05-24 00:21:00,
2013-05-23 17:52:00,70.0,36.0,-100.00,SW,234,10.0,16.0,29,0.00,,,0.00,580.000000,,2013-05-24 00:52:00,
2013-05-23 18:01:00,70.0,36.0,-100.00,SW,234,10.0,16.0,29,0.00,,,0.00,580.000000,,2013-05-24 01:01:00,
2013-05-23 18:12:00,70.0,36.0,-100.00,SW,234,10.0,16.0,29,0.00,,,0.00,580.000000,,2013-05-24 01:12:00,
2013-05-23 18:22:00,70.0,36.0,-100.00,SW,234,10.0,16.0,29,0.00,,,0.00,580.000000,,2013-05-24 01:22:00,
2013-05-23 18:52:00,69.0,38.0,-100.00,West,265,9.0,14.0,32,0.00,,,0.00,398.000000,,2013-05-24 01:52:00,
2013-05-23 19:01:00,69.0,38.0,-100.00,West,265,9.0,14.0,32,0.00,,,0.00,398.000000,,2013-05-24 02:01:00,
2013-05-23 19:11:00,69.0,38.0,-100.00,West,265,9.0,14.0,32,0.00,,,0.00,398.000000,,2013-05-24 02:11:00,
2013-05-23 19:21:00,69.0,38.0,-100.00,West,265,9.0,14.0,32,0.00,,,0.00,398.000000,,2013-05-24 02:21:00,
2013-05-23 19:52:00,65.0,37.0,-100.00,NW,320,10.0,19.0,36,0.00,,,0.00,209.000000,,2013-05-24 02:52:00,
2013-05-23 20:02:00,65.0,37.0,-100.00,NW,320,10.0,19.0,36,0.00,,,0.00,209.000000,,2013-05-24 03:02:00,
2013-05-23 20:11:00,65.0,37.0,-100.00,NW,320,10.0,19.0,36,0.00,,,0.00,209.000000,,2013-05-24 03:11:00,
2013-05-23 20:21:00,65.0,37.0,-100.00,NW,320,10.0,19.0,36,0.00,,,0.00,209.000000,,2013-05-24 03:21:00,
2013-05-23 20:53:00,61.0,36.0,-100.00,NW,306,7.0,15.0,39,0.00,,,0.00,48.000000,,2013-05-24 03:53:00,
2013-05-23 21:03:00,61.0,36.0,-100.00,NW,306,7.0,15.0,39,0.00,,,0.00,48.000000,,2013-05-24 04:03:00,
2013-05-23 21:12:00,61.0,36.0,-100.00,NW,306,7.0,15.0,39,0.00,,,0.00,48.000000,,2013-05-24 04:12:00,
2013-05-23 21:22:00,61.0,36.0,-100.00,NW,306,7.0,15.0,39,0.00,,,0.00,48.000000,,2013-05-24 04:22:00,
2013-05-23 21:53:00,59.0,38.0,-100.00,NW,323,8.0,16.0,45,0.00,,,0.00,0.000000,,2013-05-24 04:53:00,
2013-05-23 22:02:00,59.0,38.0,-100.00,NW,323,8.0,16.0,45,0.00,,,0.00,0.000000,,2013-05-24 05:02:00,
2013-05-23 22:12:00,59.0,38.0,-100.00,NW,323,8.0,16.0,45,0.00,,,0.00,0.000000,,2013-05-24 05:12:00,
2013-05-23 22:22:00,59.0,38.0,-100.00,NW,323,8.0,16.0,45,0.00,,,0.00,0.000000,,2013-05-24 05:22:00,
2013-05-23 22:52:00,55.0,38.0,-100.00,NW,325,6.0,14.0,52,0.00,,,0.00,0.000000,,2013-05-24 05:52:00,
2013-05-23 23:01:00,55.0,38.0,-100.00,NW,325,6.0,14.0,52,0.00,,,0.00,0.000000,,2013-05-24 06:01:00,
2013-05-23 23:12:00,55.0,38.0,-100.00,NW,325,6.0,14.0,52,0.00,,,0.00,0.000000,,2013-05-24 06:12:00,
2013-05-23 23:21:00,55.0,38.0,-100.00,NW,325,6.0,14.0,52,0.00,,,0.00,0.000000,,2013-05-24 06:21:00,
2013-05-23 23:52:00,53.0,38.0,-100.00,NW,321,3.0,10.0,57,0.00,,,0.00,0.000000,,2013-05-24 06:52:00,